Time,TemperatureF,DewpointF,PressureIn,WindDirection,WindDirectionDegrees,WindSpeedMPH,WindSpeedGustMPH,Humidity,HourlyPrecipIn,Conditions,Clouds,dailyrainin,SoftwareType,DateUTC
2013-11-16 00:00:00,43.8,39.0,30.28,SW,230,0.0,0.0,84,0.00,,,0.01,WX3IN1Plus v1.30,2013-11-16 05:00:00,
2013-11-16 00:01:00,43.7,39.0,30.28,SW,230,0.0,0.0,84,0.00,,,0.01,WX3IN1Plus v1.30,2013-11-16 05:01:00,
2013-11-16 00:03:00,43.8,39.2,30.28,SW,230,0.0,0.0,85,0.00,,,0.01,WX3IN1Plus v1.30,2013-11-16 05:03:00,
2013-11-16 00:08:00,43.7,39.2,30.29,SW,230,0.0,0.0,85,0.00,,,0.01,WX3IN1Plus v1.30,2013-11-16 05:08:00,
2013-11-16 00:13:00,43.8,39.2,30.29,South,181,0.0,2.1,85,0.01,,,0.02,WX3IN1Plus v1.30,2013-11-16 05:13:00,
2013-11-16 00:18:00,43.8,39.2,30.28,South,181,0.0,0.0,85,0.01,,,0.02,WX3IN1Plus v1.30,2013-11-16 05:18:00,
2013-11-16 00:23:00,43.8,39.2,30.28,South,181,0.0,0.0,85,0.01,,,0.02,WX3IN1Plus v1.30,2013-11-16 05:23:00,
2013-11-16 00:28:00,43.9,39.5,30.28,South,175,0.0,1.6,85,0.01,,,0.02,WX3IN1Plus v1.30,2013-11-16 05:28:00,
2013-11-16 00:33:00,43.8,39.2,30.28,SSW,201,3.2,3.3,85,0.01,,,0.02,WX3IN1Plus v1.30,2013-11-16 05:33:00,
2013-11-16 00:38:00,44.0,39.7,30.29,South,170,0.0,3.4,86,0.02,,,0.03,WX3IN1Plus v1.30,2013-11-16 05:38:00,
2013-11-16 00:43:00,44.2,39.9,30.29,SW,230,2.4,2.4,86,0.02,,,0.03,WX3IN1Plus v1.30,2013-11-16 05:43:00,
2013-11-16 00:48:00,44.3,40.2,30.29,South,189,1.6,2.9,86,0.03,,,0.04,WX3IN1Plus v1.30,2013-11-16 05:48:00,
2013-11-16 00:53:00,44.2,39.9,30.29,SSE,165,0.0,2.7,86,0.03,,,0.04,WX3IN1Plus v1.30,2013-11-16 05:53:00,
2013-11-16 00:58:00,44.6,40.4,30.28,South,189,1.8,2.9,86,0.04,,,0.05,WX3IN1Plus v1.30,2013-11-16 05:58:00,
2013-11-16 01:03:00,44.7,40.8,30.28,SSW,209,0.0,2.7,87,0.04,,,0.05,WX3IN1Plus v1.30,2013-11-16 06:03:00,
2013-11-16 01:08:00,44.7,40.8,30.28,SSE,164,0.0,2.4,87,0.05,,,0.06,WX3IN1Plus v1.30,2013-11-16 06:08:00,
2013-11-16 01:13:00,44.8,41.5,30.28,SSE,164,0.0,0.0,89,0.04,,,0.06,WX3IN1Plus v1.30,2013-11-16 06:13:00,
2013-11-16 01:18:00,44.6,41.5,30.28,SSE,164,0.0,0.0,90,0.04,,,0.06,WX3IN1Plus v1.30,2013-11-16 06:18:00,
2013-11-16 01:23:00,44.8,41.7,30.28,SSE,164,0.0,0.0,90,0.05,,,0.07,WX3IN1Plus v1.30,2013-11-16 06:23:00,
2013-11-16 01:28:00,44.7,41.5,30.28,SSE,164,0.0,0.0,90,0.05,,,0.07,WX3IN1Plus v1.30,2013-11-16 06:28:00,
2013-11-16 01:33:00,44.5,41.3,30.28,SSE,164,0.0,0.0,90,0.04,,,0.07,WX3IN1Plus v1.30,2013-11-16 06:33:00,
2013-11-16 01:38:00,44.8,41.7,30.28,SSE,164,0.0,0.0,90,0.05,,,0.08,WX3IN1Plus v1.30,2013-11-16 06:38:00,
2013-11-16 01:43:00,44.8,41.7,30.28,SSW,194,0.0,3.1,90,0.05,,,0.08,WX3IN1Plus v1.30,2013-11-16 06:43:00,
2013-11-16 01:48:00,45.0,41.7,30.28,SSW,194,0.0,0.0,90,0.05,,,0.09,WX3IN1Plus v1.30,2013-11-16 06:48:00,
2013-11-16 01:53:00,44.8,41.7,30.28,South,188,0.0,1.4,90,0.06,,,0.10,WX3IN1Plus v1.30,2013-11-16 06:53:00,
2013-11-16 01:58:00,44.6,42.0,30.28,South,188,0.0,0.0,91,0.05,,,0.10,WX3IN1Plus v1.30,2013-11-16 06:58:00,
2013-11-16 02:03:00,45.0,42.2,30.28,South,188,0.0,0.0,91,0.06,,,0.11,WX3IN1Plus v1.30,2013-11-16 07:03:00,
2013-11-16 02:08:00,44.9,42.2,30.28,South,188,0.0,0.0,91,0.06,,,0.12,WX3IN1Plus v1.30,2013-11-16 07:08:00,
2013-11-16 02:13:00,45.0,42.2,30.28,South,188,0.0,0.0,91,0.06,,,0.12,WX3IN1Plus v1.30,2013-11-16 07:13:00,
2013-11-16 02:18:00,44.9,42.2,30.28,South,188,0.0,0.0,91,0.06,,,0.12,WX3IN1Plus v1.30,2013-11-16 07:18:00,
2013-11-16 02:23:00,44.9,42.2,30.28,South,188,0.0,0.0,91,0.06,,,0.13,WX3IN1Plus v1.30,2013-11-16 07:23:00,
2013-11-16 02:28:00,44.9,42.2,30.28,South,188,0.0,0.2,91,0.06,,,0.13,WX3IN1Plus v1.30,2013-11-16 07:28:00,
2013-11-16 02:33:00,44.9,42.2,30.28,South,188,0.0,0.0,91,0.07,,,0.14,WX3IN1Plus v1.30,2013-11-16 07:33:00,
2013-11-16 02:38:00,45.1,42.2,30.28,South,188,0.0,0.0,91,0.06,,,0.14,WX3IN1Plus v1.30,2013-11-16 07:38:00,
2013-11-16 02:43:00,45.1,42.2,30.28,South,188,0.0,0.0,91,0.06,,,0.15,WX3IN1Plus v1.30,2013-11-16 07:43:00,
2013-11-16 02:48:00,45.2,42.6,30.28,South,188,0.0,0.0,91,0.06,,,0.15,WX3IN1Plus v1.30,2013-11-16 07:48:00,
2013-11-16 02:53:00,45.1,42.2,30.28,South,188,0.0,0.0,91,0.05,,,0.15,WX3IN1Plus v1.30,2013-11-16 07:53:00,
2013-11-16 02:58:00,45.2,42.6,30.28,South,188,0.0,0.0,91,0.05,,,0.16,WX3IN1Plus v1.30,2013-11-16 07:58:00,
2013-11-16 03:03:00,45.1,42.2,30.28,South,188,0.0,0.0,91,0.05,,,0.16,WX3IN1Plus v1.30,2013-11-16 08:03:00,
2013-11-16 03:08:00,45.1,42.2,30.28,South,188,0.0,0.0,91,0.04,,,0.16,WX3IN1Plus v1.30,2013-11-16 08:08:00,
2013-11-16 03:13:00,45.1,42.2,30.28,South,188,0.0,0.0,91,0.04,,,0.16,WX3IN1Plus v1.30,2013-11-16 08:13:00,
2013-11-16 03:18:00,45.1,42.2,30.28,South,188,0.0,0.0,91,0.05,,,0.17,WX3IN1Plus v1.30,2013-11-16 08:18:00,
2013-11-16 03:23:00,45.1,42.2,30.28,South,188,0.0,0.0,91,0.04,,,0.17,WX3IN1Plus v1.30,2013-11-16 08:23:00,
2013-11-16 03:28:00,45.2,42.6,30.28,South,188,0.0,0.0,91,0.03,,,0.17,WX3IN1Plus v1.30,2013-11-16 08:28:00,
2013-11-16 03:33:00,45.2,42.8,30.28,South,188,0.0,0.0,92,0.03,,,0.17,WX3IN1Plus v1.30,2013-11-16 08:33:00,
2013-11-16 03:38:00,45.1,42.6,30.28,South,188,0.0,0.0,92,0.04,,,0.18,WX3IN1Plus v1.30,2013-11-16 08:38:00,
2013-11-16 03:43:00,45.2,42.8,30.28,South,188,0.0,0.0,92,0.03,,,0.18,WX3IN1Plus v1.30,2013-11-16 08:43:00,
2013-11-16 03:48:00,45.3,42.8,30.27,South,188,0.0,0.0,92,0.04,,,0.19,WX3IN1Plus v1.30,2013-11-16 08:48:00,
2013-11-16 03:53:00,45.2,42.8,30.28,South,188,0.0,0.0,92,0.04,,,0.19,WX3IN1Plus v1.30,2013-11-16 08:53:00,
2013-11-16 03:58:00,45.2,42.8,30.28,South,188,0.0,0.0,92,0.03,,,0.19,WX3IN1Plus v1.30,2013-11-16 08:58:00,
2013-11-16 04:03:00,45.4,43.1,30.28,South,188,0.0,0.0,92,0.03,,,0.19,WX3IN1Plus v1.30,2013-11-16 09:03:00,
2013-11-16 04:08:00,45.3,42.8,30.28,South,188,0.0,0.0,92,0.03,,,0.19,WX3IN1Plus v1.30,2013-11-16 09:08:00,
2013-11-16 04:13:00,45.2,42.8,30.28,South,188,0.0,0.0,92,0.03,,,0.19,WX3IN1Plus v1.30,2013-11-16 09:13:00,
2013-11-16 04:18:00,45.2,42.8,30.28,South,188,0.0,0.0,92,0.02,,,0.19,WX3IN1Plus v1.30,2013-11-16 09:18:00,
2013-11-16 04:23:00,45.1,42.6,30.28,South,188,0.0,0.0,92,0.02,,,0.19,WX3IN1Plus v1.30,2013-11-16 09:23:00,
2013-11-16 04:28:00,45.2,42.8,30.28,South,188,0.0,0.0,92,0.02,,,0.19,WX3IN1Plus v1.30,2013-11-16 09:28:00,
2013-11-16 04:33:00,45.1,42.6,30.28,South,188,0.0,0.0,92,0.02,,,0.19,WX3IN1Plus v1.30,2013-11-16 09:33:00,
2013-11-16 04:38:00,45.1,42.6,30.28,South,188,0.0,0.0,92,0.01,,,0.19,WX3IN1Plus v1.30,2013-11-16 09:38:00,
2013-11-16 04:43:00,45.1,42.6,30.28,South,188,0.0,0.0,92,0.01,,,0.19,WX3IN1Plus v1.30,2013-11-16 09:43:00,
2013-11-16 04:48:00,45.1,42.6,30.29,South,188,0.0,0.0,92,0.00,,,0.19,WX3IN1Plus v1.30,2013-11-16 09:48:00,
2013-11-16 04:53:00,45.2,42.8,30.29,South,188,0.0,0.0,92,0.00,,,0.19,WX3IN1Plus v1.30,2013-11-16 09:53:00,
2013-11-16 04:58:00,45.1,42.6,30.29,South,188,0.0,0.0,92,0.00,,,0.19,WX3IN1Plus v1.30,2013-11-16 09:58:00,
2013-11-16 05:03:00,45.2,42.8,30.29,South,188,0.0,0.0,92,0.00,,,0.19,WX3IN1Plus v1.30,2013-11-16 10:03:00,
2013-11-16 05:08:00,45.1,42.6,30.29,South,188,0.0,0.0,92,0.00,,,0.19,WX3IN1Plus v1.30,2013-11-16 10:08:00,
2013-11-16 05:13:00,45.4,43.1,30.29,South,188,0.0,0.0,92,0.00,,,0.19,WX3IN1Plus v1.30,2013-11-16 10:13:00,
2013-11-16 05:18:00,45.3,42.8,30.30,South,188,0.0,0.0,92,0.00,,,0.19,WX3IN1Plus v1.30,2013-11-16 10:18:00,
2013-11-16 05:23:00,45.2,42.8,30.30,South,188,0.0,0.0,92,0.00,,,0.19,WX3IN1Plus v1.30,2013-11-16 10:23:00,
2013-11-16 05:28:00,45.4,43.3,30.30,South,188,0.0,0.0,93,0.00,,,0.19,WX3IN1Plus v1.30,2013-11-16 10:28:00,
2013-11-16 05:33:00,45.4,43.3,30.30,South,188,0.0,0.0,93,0.00,,,0.19,WX3IN1Plus v1.30,2013-11-16 10:33:00,
2013-11-16 05:38:00,45.5,43.3,30.30,South,188,0.0,0.0,93,0.00,,,0.19,WX3IN1Plus v1.30,2013-11-16 10:38:00,
2013-11-16 05:43:00,45.5,43.3,30.30,South,188,0.0,0.0,93,0.00,,,0.19,WX3IN1Plus v1.30,2013-11-16 10:43:00,
2013-11-16 05:48:00,45.5,43.3,30.30,South,188,0.0,0.0,93,0.00,,,0.19,WX3IN1Plus v1.30,2013-11-16 10:48:00,
2013-11-16 05:53:00,45.4,43.3,30.30,South,188,0.0,0.0,93,0.00,,,0.19,WX3IN1Plus v1.30,2013-11-16 10:53:00,
2013-11-16 05:58:00,45.5,43.3,30.30,South,188,0.0,0.0,93,0.00,,,0.19,WX3IN1Plus v1.30,2013-11-16 10:58:00,
2013-11-16 06:03:00,45.6,43.3,30.31,South,188,0.0,0.0,93,0.00,,,0.19,WX3IN1Plus v1.30,2013-11-16 11:03:00,
2013-11-16 06:08:00,45.6,43.3,30.31,South,188,0.0,0.0,93,0.00,,,0.19,WX3IN1Plus v1.30,2013-11-16 11:08:00,
2013-11-16 06:13:00,45.6,43.3,30.31,South,188,0.0,0.0,93,0.00,,,0.19,WX3IN1Plus v1.30,2013-11-16 11:13:00,
2013-11-16 06:18:00,45.6,43.3,30.31,South,188,0.0,0.0,93,0.00,,,0.19,WX3IN1Plus v1.30,2013-11-16 11:18:00,
2013-11-16 06:23:00,45.7,43.7,30.31,South,188,0.0,0.0,93,0.00,,,0.19,WX3IN1Plus v1.30,2013-11-16 11:23:00,
2013-11-16 06:28:00,45.8,43.7,30.31,South,188,0.0,0.0,93,0.00,,,0.19,WX3IN1Plus v1.30,2013-11-16 11:28:00,
2013-11-16 06:33:00,45.8,43.7,30.31,South,188,0.0,0.0,93,0.00,,,0.19,WX3IN1Plus v1.30,2013-11-16 11:33:00,
2013-11-16 06:38:00,45.6,43.3,30.31,South,188,0.0,0.0,93,0.00,,,0.19,WX3IN1Plus v1.30,2013-11-16 11:38:00,
2013-11-16 06:43:00,45.7,43.7,30.31,South,188,0.0,0.0,93,0.00,,,0.19,WX3IN1Plus v1.30,2013-11-16 11:43:00,
2013-11-16 06:48:00,45.7,43.7,30.32,South,188,0.0,0.0,93,0.00,,,0.19,WX3IN1Plus v1.30,2013-11-16 11:48:00,
2013-11-16 06:53:00,45.8,43.7,30.32,South,188,0.0,0.0,93,0.00,,,0.19,WX3IN1Plus v1.30,2013-11-16 11:53:00,
2013-11-16 06:58:00,45.8,43.7,30.33,South,188,0.0,0.0,93,0.00,,,0.19,WX3IN1Plus v1.30,2013-11-16 11:58:00,
2013-11-16 07:03:00,45.8,43.7,30.33,South,188,0.0,0.0,93,0.00,,,0.19,WX3IN1Plus v1.30,2013-11-16 12:03:00,
2013-11-16 07:08:00,45.7,43.7,30.33,South,188,0.0,0.0,93,0.00,,,0.19,WX3IN1Plus v1.30,2013-11-16 12:08:00,
2013-11-16 07:13:00,45.9,43.8,30.33,South,188,0.0,0.0,93,0.00,,,0.19,WX3IN1Plus v1.30,2013-11-16 12:13:00,
2013-11-16 07:18:00,45.9,43.8,30.33,South,188,0.0,0.0,93,0.00,,,0.19,WX3IN1Plus v1.30,2013-11-16 12:18:00,
2013-11-16 07:23:00,45.9,43.8,30.33,South,188,0.0,0.0,93,0.00,,,0.19,WX3IN1Plus v1.30,2013-11-16 12:23:00,
2013-11-16 07:28:00,45.9,43.8,30.33,South,188,0.0,0.0,93,0.00,,,0.19,WX3IN1Plus v1.30,2013-11-16 12:28:00,
2013-11-16 07:33:00,46.0,43.8,30.33,South,188,0.0,0.0,93,0.00,,,0.19,WX3IN1Plus v1.30,2013-11-16 12:33:00,
2013-11-16 07:38:00,46.1,43.8,30.33,South,188,0.0,0.0,93,0.00,,,0.19,WX3IN1Plus v1.30,2013-11-16 12:38:00,
2013-11-16 07:43:00,46.2,43.8,30.34,South,188,0.0,0.0,93,0.00,,,0.19,WX3IN1Plus v1.30,2013-11-16 12:43:00,
2013-11-16 07:48:00,46.2,43.8,30.34,South,188,0.0,0.0,93,0.00,,,0.19,WX3IN1Plus v1.30,2013-11-16 12:48:00,
2013-11-16 07:53:00,46.1,43.8,30.34,South,188,0.0,0.0,93,0.00,,,0.19,WX3IN1Plus v1.30,2013-11-16 12:53:00,
2013-11-16 07:58:00,46.3,44.0,30.34,South,188,0.0,0.0,93,0.00,,,0.19,WX3IN1Plus v1.30,2013-11-16 12:58:00,
2013-11-16 08:03:00,46.4,43.3,30.34,South,188,0.0,0.0,90,0.00,,,0.19,WX3IN1Plus v1.30,2013-11-16 13:03:00,
2013-11-16 08:08:00,46.4,43.3,30.34,South,188,0.0,0.0,90,0.00,,,0.19,WX3IN1Plus v1.30,2013-11-16 13:08:00,
2013-11-16 08:14:00,46.2,42.8,30.34,South,188,0.0,0.0,90,0.00,,,0.19,WX3IN1Plus v1.30,2013-11-16 13:14:00,
2013-11-16 08:18:00,46.5,43.3,30.35,South,188,0.0,0.0,90,0.00,,,0.19,WX3IN1Plus v1.30,2013-11-16 13:18:00,
2013-11-16 08:24:00,46.7,43.3,30.35,South,188,0.0,0.0,90,0.00,,,0.19,WX3IN1Plus v1.30,2013-11-16 13:24:00,
2013-11-16 08:29:00,46.9,44.6,30.35,South,188,0.0,0.0,93,0.00,,,0.19,WX3IN1Plus v1.30,2013-11-16 13:29:00,
2013-11-16 08:34:00,47.0,44.9,30.35,South,188,0.0,0.3,93,0.00,,,0.19,WX3IN1Plus v1.30,2013-11-16 13:34:00,
2013-11-16 08:39:00,47.0,44.9,30.35,South,188,0.0,0.0,93,0.00,,,0.19,WX3IN1Plus v1.30,2013-11-16 13:39:00,
2013-11-16 08:44:00,47.1,44.9,30.36,NNE,32,0.3,2.4,93,0.00,,,0.19,WX3IN1Plus v1.30,2013-11-16 13:44:00,
2013-11-16 08:49:00,47.4,45.1,30.36,NNE,32,0.0,0.7,93,0.00,,,0.19,WX3IN1Plus v1.30,2013-11-16 13:49:00,
2013-11-16 08:54:00,47.4,45.1,30.36,SSE,147,0.0,3.5,93,0.00,,,0.19,WX3IN1Plus v1.30,2013-11-16 13:54:00,
2013-11-16 08:59:00,47.6,45.5,30.36,SE,144,0.0,3.4,93,0.00,,,0.19,WX3IN1Plus v1.30,2013-11-16 13:59:00,
2013-11-16 09:04:00,47.6,45.5,30.36,SE,137,1.1,1.1,93,0.00,,,0.19,WX3IN1Plus v1.30,2013-11-16 14:04:00,
2013-11-16 09:09:00,47.8,45.5,30.36,East,85,0.0,0.9,93,0.00,,,0.19,WX3IN1Plus v1.30,2013-11-16 14:09:00,
2013-11-16 09:14:00,48.1,46.0,30.36,East,85,0.0,0.0,93,0.00,,,0.19,WX3IN1Plus v1.30,2013-11-16 14:14:00,
2013-11-16 09:19:00,48.3,46.0,30.36,East,85,0.0,0.0,93,0.00,,,0.19,WX3IN1Plus v1.30,2013-11-16 14:19:00,
2013-11-16 09:24:00,48.2,46.0,30.36,East,85,0.0,0.0,93,0.00,,,0.19,WX3IN1Plus v1.30,2013-11-16 14:24:00,
2013-11-16 09:29:00,48.3,45.6,30.37,East,85,0.0,0.0,92,0.00,,,0.19,WX3IN1Plus v1.30,2013-11-16 14:29:00,
2013-11-16 09:34:00,48.5,44.9,30.25,East,85,0.0,0.0,89,0.00,,,0.19,WX3IN1Plus v1.30,2013-11-16 14:34:00,
2013-11-16 09:39:00,48.6,45.1,30.31,North,357,0.0,1.0,89,0.00,,,0.19,WX3IN1Plus v1.30,2013-11-16 14:39:00,
2013-11-16 09:44:00,48.8,46.5,30.37,North,357,0.0,0.0,92,0.00,,,0.19,WX3IN1Plus v1.30,2013-11-16 14:44:00,
2013-11-16 09:49:00,48.9,45.5,30.37,North,357,0.0,0.0,89,0.00,,,0.19,WX3IN1Plus v1.30,2013-11-16 14:49:00,
2013-11-16 09:54:00,48.7,44.9,30.37,North,357,0.0,0.0,88,0.00,,,0.19,WX3IN1Plus v1.30,2013-11-16 14:54:00,
2013-11-16 09:59:00,49.1,45.5,30.37,North,357,0.0,0.0,88,0.00,,,0.19,WX3IN1Plus v1.30,2013-11-16 14:59:00,
2013-11-16 10:04:00,49.3,45.6,30.37,North,357,0.0,0.0,88,0.00,,,0.19,WX3IN1Plus v1.30,2013-11-16 15:04:00,
2013-11-16 10:09:00,49.6,45.6,30.37,North,357,0.0,0.0,88,0.00,,,0.19,WX3IN1Plus v1.30,2013-11-16 15:09:00,
2013-11-16 10:14:00,49.4,45.5,30.37,North,357,0.0,0.0,87,0.00,,,0.19,WX3IN1Plus v1.30,2013-11-16 15:14:00,
2013-11-16 10:19:00,49.5,45.5,30.36,North,357,0.0,0.0,87,0.00,,,0.19,WX3IN1Plus v1.30,2013-11-16 15:19:00,
2013-11-16 10:24:00,49.8,45.6,30.36,NNE,26,2.6,4.2,87,0.00,,,0.19,WX3IN1Plus v1.30,2013-11-16 15:24:00,
2013-11-16 10:29:00,50.2,46.2,30.36,East,99,0.0,3.5,87,0.00,,,0.19,WX3IN1Plus v1.30,2013-11-16 15:29:00,
2013-11-16 10:34:00,50.1,46.2,30.36,North,11,2.2,5.6,88,0.00,,,0.19,WX3IN1Plus v1.30,2013-11-16 15:34:00,
2013-11-16 10:39:00,50.4,46.0,30.36,ENE,74,0.0,2.8,85,0.00,,,0.19,WX3IN1Plus v1.30,2013-11-16 15:39:00,
2013-11-16 10:44:00,50.7,46.0,30.36,NNE,12,2.0,3.2,85,0.00,,,0.19,WX3IN1Plus v1.30,2013-11-16 15:44:00,
2013-11-16 10:49:00,50.9,46.5,30.36,North,351,0.0,2.9,85,0.00,,,0.19,WX3IN1Plus v1.30,2013-11-16 15:49:00,
2013-11-16 10:54:00,51.0,46.5,30.36,SE,146,1.9,1.9,85,0.00,,,0.19,WX3IN1Plus v1.30,2013-11-16 15:54:00,
2013-11-16 10:59:00,51.1,46.2,30.35,SE,136,1.4,5.4,84,0.00,,,0.19,WX3IN1Plus v1.30,2013-11-16 15:59:00,
2013-11-16 11:04:00,51.5,46.7,30.35,SE,125,0.9,3.2,84,0.00,,,0.19,WX3IN1Plus v1.30,2013-11-16 16:04:00,
2013-11-16 11:09:00,51.7,46.7,30.35,ESE,105,1.1,2.7,84,0.00,,,0.19,WX3IN1Plus v1.30,2013-11-16 16:09:00,
2013-11-16 11:14:00,51.7,46.7,30.35,South,174,2.0,2.1,84,0.00,,,0.19,WX3IN1Plus v1.30,2013-11-16 16:14:00,
2013-11-16 11:19:00,51.6,47.3,30.34,SE,133,1.8,3.6,86,0.00,,,0.19,WX3IN1Plus v1.30,2013-11-16 16:19:00,
2013-11-16 11:24:00,51.9,47.1,30.34,SE,125,1.7,4.5,84,0.00,,,0.19,WX3IN1Plus v1.30,2013-11-16 16:24:00,
2013-11-16 11:29:00,52.0,46.7,30.33,North,358,2.3,5.7,83,0.00,,,0.19,WX3IN1Plus v1.30,2013-11-16 16:29:00,
2013-11-16 11:34:00,52.0,47.3,30.33,NNE,28,2.6,4.3,84,0.00,,,0.19,WX3IN1Plus v1.30,2013-11-16 16:34:00,
2013-11-16 11:39:00,51.8,46.5,30.33,East,99,0.8,4.2,83,0.00,,,0.19,WX3IN1Plus v1.30,2013-11-16 16:39:00,
2013-11-16 11:44:00,52.0,46.7,30.33,East,98,0.0,2.6,83,0.00,,,0.19,WX3IN1Plus v1.30,2013-11-16 16:44:00,
2013-11-16 11:49:00,52.1,46.7,30.32,East,101,0.0,3.7,83,0.00,,,0.19,WX3IN1Plus v1.30,2013-11-16 16:49:00,
2013-11-16 11:54:00,52.0,46.5,30.32,NE,52,2.6,5.5,82,0.00,,,0.19,WX3IN1Plus v1.30,2013-11-16 16:54:00,
2013-11-16 11:59:00,51.9,47.3,30.32,NNE,14,3.6,5.0,85,0.00,,,0.19,WX3IN1Plus v1.30,2013-11-16 16:59:00,
2013-11-16 12:04:00,51.6,46.0,30.32,NNE,28,2.1,5.5,82,0.00,,,0.19,WX3IN1Plus v1.30,2013-11-16 17:04:00,
2013-11-16 12:09:00,51.8,46.5,30.32,SE,140,1.0,5.7,83,0.00,,,0.19,WX3IN1Plus v1.30,2013-11-16 17:09:00,
2013-11-16 12:14:00,51.9,47.6,30.32,East,92,0.0,1.1,86,0.00,,,0.19,WX3IN1Plus v1.30,2013-11-16 17:14:00,
2013-11-16 12:19:00,52.0,47.8,30.33,East,92,0.0,0.0,86,0.00,,,0.19,WX3IN1Plus v1.30,2013-11-16 17:19:00,
2013-11-16 12:24:00,51.9,47.6,30.33,NNE,32,0.0,0.8,86,0.00,,,0.19,WX3IN1Plus v1.30,2013-11-16 17:24:00,
2013-11-16 12:29:00,52.1,47.6,30.33,NNE,33,0.0,2.6,85,0.00,,,0.19,WX3IN1Plus v1.30,2013-11-16 17:29:00,
2013-11-16 12:34:00,52.1,47.6,30.32,North,2,2.4,5.0,85,0.00,,,0.19,WX3IN1Plus v1.30,2013-11-16 17:34:00,
2013-11-16 12:39:00,52.0,47.6,30.32,North,355,1.7,3.2,85,0.00,,,0.19,WX3IN1Plus v1.30,2013-11-16 17:39:00,
2013-11-16 12:44:00,52.0,47.6,30.33,NE,53,0.0,3.3,85,0.00,,,0.19,WX3IN1Plus v1.30,2013-11-16 17:44:00,
2013-11-16 12:49:00,52.2,47.6,30.33,NNW,348,3.3,5.1,85,0.00,,,0.19,WX3IN1Plus v1.30,2013-11-16 17:49:00,
2013-11-16 12:54:00,52.0,47.6,30.33,NE,47,1.9,3.6,85,0.00,,,0.19,WX3IN1Plus v1.30,2013-11-16 17:54:00,
2013-11-16 12:59:00,52.0,47.6,30.32,North,9,0.0,2.0,85,0.00,,,0.19,WX3IN1Plus v1.30,2013-11-16 17:59:00,
2013-11-16 13:04:00,52.2,47.3,30.32,ENE,60,3.5,5.7,84,0.00,,,0.19,WX3IN1Plus v1.30,2013-11-16 18:04:00,
2013-11-16 13:09:00,52.3,47.3,30.32,ENE,75,1.2,4.7,84,0.00,,,0.19,WX3IN1Plus v1.30,2013-11-16 18:09:00,
2013-11-16 13:14:00,52.1,47.6,30.31,ESE,113,0.8,5.6,85,0.00,,,0.19,WX3IN1Plus v1.30,2013-11-16 18:14:00,
2013-11-16 13:19:00,52.4,47.6,30.31,NNE,33,4.3,5.9,84,0.00,,,0.19,WX3IN1Plus v1.30,2013-11-16 18:19:00,
2013-11-16 13:24:00,52.7,47.8,30.31,ENE,60,1.2,4.4,84,0.00,,,0.19,WX3IN1Plus v1.30,2013-11-16 18:24:00,
2013-11-16 13:29:00,52.3,46.7,30.31,ENE,78,1.6,6.4,83,0.00,,,0.19,WX3IN1Plus v1.30,2013-11-16 18:29:00,
2013-11-16 13:34:00,52.6,47.3,30.30,NE,53,2.7,5.2,83,0.00,,,0.19,WX3IN1Plus v1.30,2013-11-16 18:34:00,
2013-11-16 13:39:00,52.7,47.3,30.30,NE,53,3.3,4.8,83,0.00,,,0.19,WX3IN1Plus v1.30,2013-11-16 18:39:00,
2013-11-16 13:44:00,52.7,47.3,30.30,NW,324,0.3,5.3,83,0.00,,,0.19,WX3IN1Plus v1.30,2013-11-16 18:44:00,
2013-11-16 13:49:00,52.8,47.3,30.30,ENE,70,0.0,5.7,83,0.00,,,0.19,WX3IN1Plus v1.30,2013-11-16 18:49:00,
2013-11-16 13:54:00,52.4,47.1,30.30,NNE,23,4.6,5.9,83,0.00,,,0.19,WX3IN1Plus v1.30,2013-11-16 18:54:00,
2013-11-16 13:59:00,52.6,47.3,30.31,NE,43,0.8,4.9,83,0.00,,,0.19,WX3IN1Plus v1.30,2013-11-16 18:59:00,
2013-11-16 14:05:00,52.6,47.3,30.31,ENE,71,1.5,7.0,83,0.00,,,0.19,WX3IN1Plus v1.30,2013-11-16 19:05:00,
2013-11-16 14:10:00,52.4,47.1,30.31,NE,56,0.0,3.2,83,0.00,,,0.19,WX3IN1Plus v1.30,2013-11-16 19:10:00,
2013-11-16 14:15:00,52.5,46.7,30.30,North,357,0.0,3.3,82,0.00,,,0.19,WX3IN1Plus v1.30,2013-11-16 19:15:00,
2013-11-16 14:20:00,52.6,47.3,30.30,SSW,198,0.0,3.4,83,0.00,,,0.19,WX3IN1Plus v1.30,2013-11-16 19:20:00,
2013-11-16 14:25:00,52.6,47.3,30.31,East,88,0.0,3.4,83,0.00,,,0.19,WX3IN1Plus v1.30,2013-11-16 19:25:00,
2013-11-16 14:30:00,52.5,47.1,30.31,SE,127,0.0,2.7,83,0.00,,,0.19,WX3IN1Plus v1.30,2013-11-16 19:30:00,
2013-11-16 14:35:00,52.4,47.1,30.31,SE,144,1.1,4.1,83,0.00,,,0.19,WX3IN1Plus v1.30,2013-11-16 19:35:00,
2013-11-16 14:40:00,52.3,46.7,30.31,East,91,2.2,3.4,83,0.00,,,0.19,WX3IN1Plus v1.30,2013-11-16 19:40:00,
2013-11-16 14:45:00,52.5,47.1,30.31,ESE,120,0.0,3.5,83,0.00,,,0.19,WX3IN1Plus v1.30,2013-11-16 19:45:00,
2013-11-16 14:50:00,52.4,47.1,30.31,NE,43,0.0,3.2,83,0.00,,,0.19,WX3IN1Plus v1.30,2013-11-16 19:50:00,
2013-11-16 14:55:00,52.2,46.7,30.31,ESE,109,1.5,3.0,83,0.00,,,0.19,WX3IN1Plus v1.30,2013-11-16 19:55:00,
2013-11-16 15:00:00,52.2,46.2,30.31,SE,136,2.4,3.2,81,0.00,,,0.19,WX3IN1Plus v1.30,2013-11-16 20:00:00,
2013-11-16 15:05:00,52.0,46.2,30.31,ESE,119,1.4,2.7,81,0.00,,,0.19,WX3IN1Plus v1.30,2013-11-16 20:05:00,
2013-11-16 15:10:00,51.8,45.6,30.31,NNE,33,0.0,2.2,80,0.00,,,0.19,WX3IN1Plus v1.30,2013-11-16 20:10:00,
2013-11-16 15:15:00,52.0,47.3,30.31,SE,126,0.0,2.9,84,0.00,,,0.19,WX3IN1Plus v1.30,2013-11-16 20:15:00,
2013-11-16 15:20:00,52.0,47.3,30.31,SE,140,3.1,3.1,84,0.00,,,0.19,WX3IN1Plus v1.30,2013-11-16 20:20:00,
2013-11-16 15:25:00,52.0,47.3,30.31,SE,139,0.0,3.4,84,0.00,,,0.19,WX3IN1Plus v1.30,2013-11-16 20:25:00,
2013-11-16 15:30:00,51.9,47.1,30.31,ESE,105,0.0,2.4,84,0.00,,,0.19,WX3IN1Plus v1.30,2013-11-16 20:30:00,
2013-11-16 15:35:00,51.9,46.5,30.31,ESE,104,0.0,2.6,83,0.00,,,0.19,WX3IN1Plus v1.30,2013-11-16 20:35:00,
2013-11-16 15:40:00,52.0,47.3,30.31,ESE,104,0.0,0.0,84,0.00,,,0.19,WX3IN1Plus v1.30,2013-11-16 20:40:00,
2013-11-16 15:45:00,51.9,47.1,30.31,SSW,192,0.0,3.3,84,0.00,,,0.19,WX3IN1Plus v1.30,2013-11-16 20:45:00,
2013-11-16 15:50:00,51.9,47.1,30.31,SSW,192,0.0,0.0,84,0.00,,,0.19,WX3IN1Plus v1.30,2013-11-16 20:50:00,
2013-11-16 15:55:00,51.9,47.1,30.31,ESE,111,0.0,1.9,84,0.00,,,0.19,WX3IN1Plus v1.30,2013-11-16 20:55:00,
2013-11-16 16:00:00,52.0,47.3,30.31,SE,129,1.4,2.6,84,0.00,,,0.19,WX3IN1Plus v1.30,2013-11-16 21:00:00,
2013-11-16 16:05:00,51.8,47.3,30.31,ESE,104,0.0,3.3,85,0.00,,,0.19,WX3IN1Plus v1.30,2013-11-16 21:05:00,
2013-11-16 16:10:00,51.8,47.3,30.31,ESE,104,0.0,0.0,85,0.00,,,0.19,WX3IN1Plus v1.30,2013-11-16 21:10:00,
2013-11-16 16:15:00,51.7,47.1,30.31,ESE,123,0.5,2.6,85,0.00,,,0.19,WX3IN1Plus v1.30,2013-11-16 21:15:00,
2013-11-16 16:20:00,51.7,47.1,30.30,South,171,0.0,3.2,85,0.00,,,0.19,WX3IN1Plus v1.30,2013-11-16 21:20:00,
2013-11-16 16:25:00,51.5,47.1,30.30,East,101,0.7,2.6,85,0.00,,,0.19,WX3IN1Plus v1.30,2013-11-16 21:25:00,
2013-11-16 16:30:00,51.3,46.0,30.30,SE,129,2.1,3.2,83,0.00,,,0.19,WX3IN1Plus v1.30,2013-11-16 21:30:00,
2013-11-16 16:35:00,51.4,47.1,30.30,NNE,30,0.0,2.2,86,0.00,,,0.19,WX3IN1Plus v1.30,2013-11-16 21:35:00,
2013-11-16 16:40:00,51.1,46.7,30.30,NNE,30,0.0,0.0,86,0.00,,,0.19,WX3IN1Plus v1.30,2013-11-16 21:40:00,
2013-11-16 16:45:00,50.9,46.7,30.30,NE,40,0.0,1.9,86,0.00,,,0.19,WX3IN1Plus v1.30,2013-11-16 21:45:00,
2013-11-16 16:50:00,51.0,47.1,30.31,NE,40,0.0,0.0,87,0.00,,,0.19,WX3IN1Plus v1.30,2013-11-16 21:50:00,
2013-11-16 16:55:00,50.9,47.1,30.31,NE,40,0.0,0.0,87,0.00,,,0.19,WX3IN1Plus v1.30,2013-11-16 21:55:00,
2013-11-16 17:00:00,50.8,46.7,30.31,NE,45,2.4,2.7,87,0.00,,,0.19,WX3IN1Plus v1.30,2013-11-16 22:00:00,
2013-11-16 17:05:00,50.7,46.5,30.31,ENE,66,0.0,2.4,87,0.00,,,0.19,WX3IN1Plus v1.30,2013-11-16 22:05:00,
2013-11-16 17:10:00,50.7,46.7,30.31,ENE,66,0.0,0.0,88,0.00,,,0.19,WX3IN1Plus v1.30,2013-11-16 22:10:00,
2013-11-16 17:15:00,50.8,47.1,30.31,ENE,66,0.0,0.0,88,0.00,,,0.19,WX3IN1Plus v1.30,2013-11-16 22:15:00,
2013-11-16 17:20:00,50.7,46.7,30.31,ENE,66,0.0,0.0,88,0.00,,,0.19,WX3IN1Plus v1.30,2013-11-16 22:20:00,
2013-11-16 17:25:00,50.6,46.7,30.31,ENE,66,0.0,0.0,88,0.00,,,0.19,WX3IN1Plus v1.30,2013-11-16 22:25:00,
2013-11-16 17:30:00,50.6,46.7,30.31,ENE,66,0.0,0.0,88,0.00,,,0.19,WX3IN1Plus v1.30,2013-11-16 22:30:00,
2013-11-16 17:35:00,50.6,46.7,30.31,ENE,66,0.0,0.0,88,0.00,,,0.19,WX3IN1Plus v1.30,2013-11-16 22:35:00,
2013-11-16 17:40:00,50.6,46.7,30.31,ENE,66,0.0,0.0,88,0.00,,,0.19,WX3IN1Plus v1.30,2013-11-16 22:40:00,
2013-11-16 17:45:00,50.4,46.7,30.31,East,99,0.0,0.8,88,0.00,,,0.19,WX3IN1Plus v1.30,2013-11-16 22:45:00,
2013-11-16 17:50:00,50.2,46.5,30.31,ENE,68,0.0,2.9,88,0.00,,,0.19,WX3IN1Plus v1.30,2013-11-16 22:50:00,
2013-11-16 17:55:00,50.3,46.7,30.31,ENE,68,0.0,0.0,89,0.00,,,0.19,WX3IN1Plus v1.30,2013-11-16 22:55:00,
2013-11-16 18:00:00,50.3,46.7,30.31,NNE,26,0.8,2.4,89,0.00,,,0.19,WX3IN1Plus v1.30,2013-11-16 23:00:00,
2013-11-16 18:05:00,50.2,46.7,30.30,NNE,21,0.0,1.1,89,0.00,,,0.19,WX3IN1Plus v1.30,2013-11-16 23:05:00,
2013-11-16 18:10:00,50.2,46.7,30.30,ENE,60,0.0,1.1,89,0.00,,,0.19,WX3IN1Plus v1.30,2013-11-16 23:10:00,
2013-11-16 18:15:00,50.2,46.7,30.30,ENE,60,0.0,0.0,89,0.00,,,0.19,WX3IN1Plus v1.30,2013-11-16 23:15:00,
2013-11-16 18:20:00,50.2,46.7,30.30,ENE,60,0.0,0.0,89,0.00,,,0.19,WX3IN1Plus v1.30,2013-11-16 23:20:00,
2013-11-16 18:25:00,50.2,46.7,30.30,ENE,60,0.0,0.0,89,0.00,,,0.19,WX3IN1Plus v1.30,2013-11-16 23:25:00,
2013-11-16 18:30:00,50.3,47.1,30.30,ENE,60,0.0,0.0,90,0.00,,,0.19,WX3IN1Plus v1.30,2013-11-16 23:30:00,
2013-11-16 18:35:00,50.1,46.7,30.30,ENE,60,0.0,0.0,90,0.00,,,0.19,WX3IN1Plus v1.30,2013-11-16 23:35:00,
2013-11-16 18:40:00,50.1,46.7,30.29,ENE,60,0.0,0.0,90,0.00,,,0.19,WX3IN1Plus v1.30,2013-11-16 23:40:00,
2013-11-16 18:45:00,50.1,46.7,30.30,ENE,60,0.0,0.0,90,0.00,,,0.19,WX3IN1Plus v1.30,2013-11-16 23:45:00,
2013-11-16 18:50:00,50.3,47.1,30.30,ENE,60,0.0,0.0,90,0.00,,,0.19,WX3IN1Plus v1.30,2013-11-16 23:50:00,
2013-11-16 18:55:00,50.3,47.1,30.30,ENE,60,0.0,0.0,90,0.00,,,0.19,WX3IN1Plus v1.30,2013-11-16 23:55:00,
2013-11-16 19:00:00,50.2,47.1,30.30,ENE,60,0.0,0.0,90,0.00,,,0.19,WX3IN1Plus v1.30,2013-11-17 00:00:00,
2013-11-16 19:05:00,50.1,46.7,30.30,ENE,60,0.0,0.0,90,0.00,,,0.19,WX3IN1Plus v1.30,2013-11-17 00:05:00,
2013-11-16 19:10:00,50.1,46.7,30.30,ENE,60,0.0,0.0,90,0.00,,,0.19,WX3IN1Plus v1.30,2013-11-17 00:10:00,
2013-11-16 19:15:00,50.2,47.1,30.30,ENE,60,0.0,0.0,90,0.00,,,0.19,WX3IN1Plus v1.30,2013-11-17 00:15:00,
2013-11-16 19:20:00,50.3,47.1,30.31,ENE,60,0.0,0.0,90,0.00,,,0.19,WX3IN1Plus v1.30,2013-11-17 00:20:00,
2013-11-16 19:25:00,50.2,47.6,30.31,ENE,60,0.0,0.0,91,0.00,,,0.19,WX3IN1Plus v1.30,2013-11-17 00:25:00,
2013-11-16 19:30:00,50.1,47.3,30.31,ENE,60,0.0,0.0,91,0.00,,,0.19,WX3IN1Plus v1.30,2013-11-17 00:30:00,
2013-11-16 19:35:00,50.3,47.6,30.31,ENE,60,0.0,0.0,91,0.00,,,0.19,WX3IN1Plus v1.30,2013-11-17 00:35:00,
2013-11-16 19:40:00,50.3,47.6,30.30,ENE,60,0.0,0.0,91,0.00,,,0.19,WX3IN1Plus v1.30,2013-11-17 00:40:00,
2013-11-16 19:45:00,50.3,47.6,30.31,ENE,60,0.0,0.0,91,0.00,,,0.19,WX3IN1Plus v1.30,2013-11-17 00:45:00,
2013-11-16 19:50:00,50.3,47.6,30.31,ENE,60,0.0,0.0,91,0.00,,,0.19,WX3IN1Plus v1.30,2013-11-17 00:50:00,
2013-11-16 19:55:00,50.1,47.3,30.30,ENE,60,0.0,0.0,91,0.00,,,0.19,WX3IN1Plus v1.30,2013-11-17 00:55:00,
2013-11-16 20:00:00,50.3,47.6,30.31,ENE,60,0.0,0.0,91,0.00,,,0.19,WX3IN1Plus v1.30,2013-11-17 01:00:00,
2013-11-16 20:05:00,50.3,47.6,30.30,ENE,60,0.0,0.0,91,0.00,,,0.19,WX3IN1Plus v1.30,2013-11-17 01:05:00,
2013-11-16 20:10:00,50.3,47.6,30.30,ENE,60,0.0,0.0,91,0.00,,,0.19,WX3IN1Plus v1.30,2013-11-17 01:10:00,
2013-11-16 20:15:00,50.3,47.6,30.30,ENE,60,0.0,0.0,91,0.00,,,0.19,WX3IN1Plus v1.30,2013-11-17 01:15:00,
2013-11-16 20:20:00,50.2,47.6,30.30,ENE,60,0.0,0.0,91,0.00,,,0.19,WX3IN1Plus v1.30,2013-11-17 01:20:00,
2013-11-16 20:25:00,50.3,47.8,30.30,ENE,60,0.0,0.0,92,0.00,,,0.19,WX3IN1Plus v1.30,2013-11-17 01:25:00,
2013-11-16 20:30:00,50.4,48.2,30.30,ENE,60,0.0,0.0,92,0.00,,,0.19,WX3IN1Plus v1.30,2013-11-17 01:30:00,
2013-11-16 20:35:00,50.3,47.8,30.30,ENE,60,0.0,0.0,92,0.00,,,0.19,WX3IN1Plus v1.30,2013-11-17 01:35:00,
2013-11-16 20:40:00,50.2,47.8,30.30,ENE,60,0.0,0.0,92,0.00,,,0.19,WX3IN1Plus v1.30,2013-11-17 01:40:00,
2013-11-16 20:45:00,50.1,47.6,30.30,ENE,60,0.0,0.0,92,0.00,,,0.19,WX3IN1Plus v1.30,2013-11-17 01:45:00,
2013-11-16 20:50:00,50.2,47.8,30.30,ENE,60,0.0,0.0,92,0.00,,,0.19,WX3IN1Plus v1.30,2013-11-17 01:50:00,
2013-11-16 20:55:00,50.3,47.8,30.30,ENE,60,0.0,0.0,92,0.00,,,0.19,WX3IN1Plus v1.30,2013-11-17 01:55:00,
2013-11-16 21:00:00,50.2,47.8,30.30,ENE,60,0.0,0.0,92,0.00,,,0.19,WX3IN1Plus v1.30,2013-11-17 02:00:00,
2013-11-16 21:05:00,50.3,47.8,30.30,ENE,60,0.0,0.0,92,0.00,,,0.19,WX3IN1Plus v1.30,2013-11-17 02:05:00,
2013-11-16 21:10:00,50.1,47.6,30.29,ENE,60,0.0,0.0,92,0.00,,,0.19,WX3IN1Plus v1.30,2013-11-17 02:10:00,
2013-11-16 21:15:00,50.2,47.8,30.30,ESE,112,0.0,2.2,92,0.00,,,0.19,WX3IN1Plus v1.30,2013-11-17 02:15:00,
2013-11-16 21:20:00,50.3,47.8,30.29,East,82,0.0,2.1,92,0.00,,,0.19,WX3IN1Plus v1.30,2013-11-17 02:20:00,
2013-11-16 21:25:00,50.3,47.8,30.29,East,82,0.0,0.0,92,0.00,,,0.19,WX3IN1Plus v1.30,2013-11-17 02:25:00,
2013-11-16 21:30:00,50.2,47.8,30.29,SSE,153,0.0,1.1,92,0.00,,,0.19,WX3IN1Plus v1.30,2013-11-17 02:30:00,
2013-11-16 21:35:00,50.3,47.8,30.29,SSE,153,0.0,0.0,92,0.00,,,0.19,WX3IN1Plus v1.30,2013-11-17 02:35:00,
2013-11-16 21:40:00,50.4,48.2,30.29,SSE,153,0.0,0.0,92,0.00,,,0.19,WX3IN1Plus v1.30,2013-11-17 02:40:00,
2013-11-16 21:45:00,50.4,48.2,30.29,SSE,153,0.0,0.0,92,0.00,,,0.19,WX3IN1Plus v1.30,2013-11-17 02:45:00,
2013-11-16 21:50:00,50.3,47.8,30.29,SSE,153,0.0,0.0,92,0.00,,,0.19,WX3IN1Plus v1.30,2013-11-17 02:50:00,
2013-11-16 21:55:00,50.3,47.8,30.28,SSE,153,0.0,0.0,92,0.00,,,0.19,WX3IN1Plus v1.30,2013-11-17 02:55:00,
2013-11-16 22:00:00,50.4,48.3,30.28,ENE,57,0.0,1.4,93,0.00,,,0.19,WX3IN1Plus v1.30,2013-11-17 03:00:00,
2013-11-16 22:05:00,50.6,48.3,30.28,ENE,57,0.0,0.0,93,0.00,,,0.19,WX3IN1Plus v1.30,2013-11-17 03:05:00,
2013-11-16 22:10:00,50.6,48.3,30.28,ENE,57,0.0,0.0,93,0.00,,,0.19,WX3IN1Plus v1.30,2013-11-17 03:10:00,
2013-11-16 22:15:00,50.4,48.3,30.28,ENE,57,0.0,0.0,93,0.00,,,0.19,WX3IN1Plus v1.30,2013-11-17 03:15:00,
2013-11-16 22:20:00,50.3,48.2,30.28,East,98,0.0,4.1,93,0.00,,,0.19,WX3IN1Plus v1.30,2013-11-17 03:20:00,
2013-11-16 22:25:00,50.6,48.3,30.27,East,98,0.0,0.0,93,0.00,,,0.19,WX3IN1Plus v1.30,2013-11-17 03:25:00,
2013-11-16 22:30:00,50.6,48.3,30.27,East,98,0.0,0.0,93,0.00,,,0.19,WX3IN1Plus v1.30,2013-11-17 03:30:00,
2013-11-16 22:35:00,50.6,48.3,30.27,SSE,150,0.5,3.0,93,0.00,,,0.19,WX3IN1Plus v1.30,2013-11-17 03:35:00,
2013-11-16 22:40:00,50.6,48.3,30.27,SSW,203,0.0,1.7,93,0.00,,,0.19,WX3IN1Plus v1.30,2013-11-17 03:40:00,
2013-11-16 22:46:00,50.4,48.3,30.27,SSW,203,0.0,0.0,93,0.00,,,0.00,WX3IN1Plus v1.30,2013-11-17 03:46:00,
2013-11-16 22:51:00,50.5,48.3,30.28,SE,130,0.0,2.0,93,0.00,,,0.00,WX3IN1Plus v1.30,2013-11-17 03:51:00,
2013-11-16 22:56:00,50.6,48.3,30.27,SE,130,0.0,0.0,93,0.00,,,0.00,WX3IN1Plus v1.30,2013-11-17 03:56:00,
2013-11-16 23:01:00,50.6,48.3,30.27,SE,130,0.0,0.0,93,0.00,,,0.00,WX3IN1Plus v1.30,2013-11-17 04:01:00,
2013-11-16 23:06:00,50.8,48.5,30.28,SE,130,0.0,0.0,93,0.00,,,0.00,WX3IN1Plus v1.30,2013-11-17 04:06:00,
2013-11-16 23:11:00,50.5,48.3,30.28,SE,130,0.0,0.0,93,0.00,,,0.00,WX3IN1Plus v1.30,2013-11-17 04:11:00,
2013-11-16 23:16:00,50.6,48.3,30.28,SE,130,0.0,0.0,93,0.00,,,0.00,WX3IN1Plus v1.30,2013-11-17 04:16:00,
2013-11-16 23:21:00,50.5,48.3,30.28,SE,130,0.0,0.0,93,0.00,,,0.00,WX3IN1Plus v1.30,2013-11-17 04:21:00,
2013-11-16 23:26:00,50.6,48.3,30.27,SE,130,0.0,0.0,93,0.00,,,0.00,WX3IN1Plus v1.30,2013-11-17 04:26:00,
2013-11-16 23:31:00,50.4,48.3,30.28,SE,130,0.0,0.0,93,0.00,,,0.00,WX3IN1Plus v1.30,2013-11-17 04:31:00,
2013-11-16 23:36:00,50.6,48.3,30.28,SE,130,0.0,0.0,93,0.00,,,0.00,WX3IN1Plus v1.30,2013-11-17 04:36:00,
2013-11-16 23:41:00,50.6,48.3,30.28,ESE,123,0.0,1.7,93,0.00,,,0.00,WX3IN1Plus v1.30,2013-11-17 04:41:00,
2013-11-16 23:46:00,50.7,48.3,30.27,ESE,123,0.0,0.0,93,0.00,,,0.00,WX3IN1Plus v1.30,2013-11-17 04:46:00,
2013-11-16 23:51:00,50.6,48.3,30.27,ESE,123,0.0,0.0,93,0.00,,,0.00,WX3IN1Plus v1.30,2013-11-17 04:51:00,
2013-11-16 23:56:00,50.5,48.3,30.27,ESE,123,0.0,0.0,93,0.00,,,0.00,WX3IN1Plus v1.30,2013-11-17 04:56:00,